Location: Anglesey
(53.1800°N, 4.2200°W)
Time: 17:29:08
(UTC+00:00)

N. Korean satellite - Visible Passes

Search period start: 17 November 2017 00:00
Search period end: 27 November 2017 00:00
Orbit: 460 x 515 km, 97.2° (Epoch: 16 November)

Date Brightness Start Highest point End Pass type
(mag) Time Alt. Az. Time Alt. Az. Time Alt. Az.
17 Nov 6.4 17:57:10 10° SSE 18:00:39 76° ENE 18:04:14 10° N visible
17 Nov 10.1 19:33:35 10° WSW 19:34:43 11° W 19:35:50 10° WNW visible
18 Nov 8.1 06:51:41 10° NNE 06:55:15 43° E 06:58:50 10° S visible
18 Nov 6.9 17:33:55 10° SE 17:37:15 41° ENE 17:40:39 10° N visible
18 Nov 9.3 19:08:25 10° SW 19:10:59 19° W 19:13:37 10° NW visible
19 Nov 9.2 06:28:30 10° NE 06:31:39 25° E 06:34:49 10° SSE visible
19 Nov 7.6 17:10:59 10° ESE 17:13:55 25° ENE 17:16:54 10° N visible
19 Nov 8.4 18:44:08 10° SSW 18:47:20 32° W 18:50:37 10° NNW visible
20 Nov 9.9 06:05:42 10° NE 06:07:59 15° E 06:10:16 10° SE visible
20 Nov 8.2 16:48:25 10° E 16:50:38 16° ENE 16:52:54 10° NNE visible
20 Nov 7.1 18:20:17 10° S 18:23:46 59° WSW 18:27:20 10° NNW visible
21 Nov 6.4 17:56:45 10° SSE 18:00:16 76° ENE 18:03:54 10° N visible
21 Nov 10.0 19:33:06 10° WSW 19:34:19 11° W 19:35:34 10° WNW visible
22 Nov 8.1 06:51:17 10° NNE 06:54:53 43° E 06:58:29 10° S visible
22 Nov 6.9 17:33:29 10° SE 17:36:51 42° ENE 17:40:17 10° N visible
22 Nov 9.3 19:07:57 10° SW 19:10:35 19° W 19:13:16 10° NW visible
23 Nov 9.2 06:28:06 10° NE 06:31:17 25° E 06:34:27 10° SSE visible
23 Nov 7.6 17:10:31 10° ESE 17:13:29 25° ENE 17:16:32 10° N visible
23 Nov 8.4 18:43:41 10° SSW 18:46:55 33° W 18:50:14 10° NNW visible
24 Nov 9.9 06:05:16 10° NE 06:07:35 16° E 06:09:54 10° SE visible
24 Nov 8.2 16:47:56 10° E 16:50:12 16° ENE 16:52:31 10° NNE visible
24 Nov 7.1 18:19:49 10° S 18:23:20 59° W 18:26:57 10° NNW visible
25 Nov 6.9 07:14:13 10° NNE 07:17:59 78° ESE 07:21:46 10° S visible
25 Nov 6.4 17:56:16 10° SSE 17:59:49 76° ENE 18:03:29 10° N visible
25 Nov 10.0 19:32:32 10° WSW 19:33:52 12° W 19:35:13 10° WNW visible
26 Nov 8.1 06:50:50 10° NNE 06:54:27 43° E 06:58:03 10° S visible
26 Nov 6.9 17:32:59 10° SE 17:36:23 42° ENE 17:39:52 10° N visible
26 Nov 9.3 19:07:26 10° SW 19:10:07 20° W 19:12:51 10° NW visible
